User: anonymous   Login
Location: Unspecified
(0.0000°N, 0.0000°E)
Time: 07:33:10
(UTC+00:00)
Language:

FALCON 9 R/B - Orbit

View from above orbital plane
View from above orbital plane
View from above satellite
View from above satellite

Ground track
Ground track

The orbit data is extracted from the following two-line orbital elements,

1 37253U 10066K   18022.96735530 +.00004670 +00000-0 +41790-3 0  9995
2 37253 034.5404 023.0480 4274267 318.4731 015.9081 06.91125239175654
Epoch (UTC): 22 January 2018 23:12:59
Eccentricity: 0.4274267
inclination: 34.5404°
perigee height: 288 km
apogee height: 10240 km
right ascension of ascending node: 23.0480°
argument of perigee: 318.4731°
revolutions per day: 6.91125239
mean anomaly at epoch: 15.9081°
orbit number at epoch: 17565

The dashed part of the orbit path shows where the satellite is in the earth's shadow,  

DLR